Temperature
28 24 24 25 25 26 27 27 27 28 29 28 26 25 25 25 25 25 24 24 23 23 23 23 23 23 22 22 21 21 21 20 20 20 20 19 19 19 19 19 18 18 18 18
24 24 25 27 27 28 27 27 27 28 29 28 26 25 25 25 25 25 24 23 23 23 23 23 23 23 22 22 21 21 21 20 20 20 20 19 19 19 19 18 18 18 18 18
24 25 27 28 28 28 27 27 27 28 28 27 26 24 24 24 25 24 24 24 24 24 23 23 23 22 22 22 21 21 21 20 20 20 19 19 19 19 18 18 18 18 18 18
25 26 28 28 28 29 27 28 29 28 26 24 25 23 23 23 23 23 23 24 24 24 23 23 23 22 22 22 21 21 21 20 20 20 19 19 19 19 19 18 18 18 18 18
25 27 28 28 29 29 28 29 29 28 26 24 24 23 22 23 23 23 23 24 24 24 24 23 23 23 22 22 21 21 21 20 20 20 19 19 19 19 18 18 18 18 18 18
25 27 28 28 29 30 30 27 25 22 22 23 24 23 23 22 23 23 23 24 24 24 23 23 23 22 22 22 21 21 21 20 20 20 19 19 19 19 18 18 18 18 18 18
26 27 28 29 29 29 27 23 22 23 21 22 23 23 23 24 24 24 24 24 24 23 23 23 22 22 22 22 21 21 20 20 20 20 19 19 19 19 18 18 18 18 18 18
24 24 27 28 28 27 26 23 22 23 23 22 23 24 23 25 25 25 25 24 23 23 23 23 23 22 22 22 21 21 20 20 20 19 19 19 19 18 18 18 18 18 18 18
23 24 27 29 29 28 27 24 22 21 22 22 23 24 24 24 24 24 24 23 22 23 23 23 22 22 22 21 21 21 20 20 19 19 19 19 18 18 18 18 18 18 18 17
24 25 26 28 29 28 27 25 21 21 22 22 23 23 23 24 23 23 23 23 22 23 23 23 22 22 22 21 21 21 20 20 19 19 19 18 18 18 18 18 18 18 17 17
24 24 25 26 27 27 27 26 22 19 20 21 22 22 24 23 23 22 22 23 23 23 23 23 22 22 22 21 21 20 20 20 19 19 18 18 18 18 18 18 17 17 17 17
23 21 22 24 25 27 26 25 22 22 22 20 21 22 24 23 23 23 23 23 23 23 23 23 22 22 21 21 21 20 20 20 19 19 18 18 18 18 18 17 17 17 17 17
23 21 22 23 24 26 27 26 23 20 20 20 21 23 24 23 23 23 23 22 22 22 22 22 22 21 21 21 20 20 19 19 19 19 18 18 18 18 17 17 17 17 17 17
23 20 21 22 23 24 26 27 25 22 21 21 22 23 23 22 22 22 22 22 22 22 22 21 21 21 21 20 20 20 19 19 18 18 18 18 17 17 17 17 17 17 16 16
22 22 23 23 25 26 26 27 26 25 22 22 23 23 23 22 22 22 22 22 21 21 21 21 21 21 21 20 20 19 19 18 18 18 18 17 17 17 17 17 16 16 16 16
20 21 23 24 25 26 26 26 26 26 25 24 24 23 22 23 23 22 21 21 20 21 21 21 21 20 20 20 20 19 19 18 18 17 17 17 17 17 16 16 16 16 15 15
19 20 20 21 24 25 24 25 26 25 25 25 24 23 22 21 21 21 21 21 21 21 21 21 21 20 20 20 19 19 18 18 17 17 17 17 16 16 16 16 15 15 15 15
19 18 17 20 23 23 22 23 25 25 24 24 23 22 22 22 22 22 22 22 21 21 21 21 20 20 20 20 19 19 18 18 17 17 17 16 16 16 16 15 15 15 15 14
18 18 18 18 20 22 23 25 25 24 23 23 23 23 22 22 22 21 22 23 22 22 21 21 21 20 20 19 19 18 18 17 17 17 16 16 16 16 15 15 15 14 14 14
18 18 18 18 21 21 22 24 25 23 22 22 22 22 22 22 20 20 21 22 21 21 21 21 20 20 19 19 19 18 18 17 17 16 16 16 15 15 15 15 14 14 13 13
19 18 18 18 20 20 21 23 24 22 21 22 23 23 22 21 21 22 22 22 21 21 21 20 20 19 19 19 18 18 17 17 17 16 16 15 15 15 15 14 14 13 13 13
18 17 17 17 19 19 20 21 21 20 21 22 23 23 23 23 22 22 21 21 21 20 20 20 19 19 19 18 18 18 17 17 16 16 16 15 15 14 14 14 13 13 13 12
16 16 16 17 17 18 20 20 21 21 21 22 22 23 23 22 21 21 21 21 20 20 19 19 19 18 18 18 17 17 17 16 16 15 15 15 14 14 14 13 13 13 12 12
16 16 15 16 17 18 19 20 21 21 21 22 22 22 23 22 21 21 20 20 20 19 19 18 18 18 17 17 17 17 16 16 15 15 15 14 14 13 13 13 13 12 12 12
15 15 15 15 16 18 19 19 20 20 21 21 21 21 21 21 20 20 19 19 19 19 18 18 18 18 17 16 16 16 16 15 15 15 14 14 13 13 13 12 12 12 12 11
15 15 15 15 16 16 17 18 19 20 20 20 20 20 20 21 20 19 19 19 18 18 18 17 17 17 16 16 16 15 15 15 15 14 14 13 13 13 12 12 12 11 11 11
Wind_Speed
2 3 4 8 6 6 4 3 3 4 4 6 8 9 11 11 11 11 11 10 10 10 9 9 11 11 10 9 9 9 8 7 5 3 3 2 2 2 2 4 7 8 8 7
4 5 10 8 6 4 3 3 3 3 1 4 6 5 8 9 11 12 13 12 11 8 8 10 9 10 10 10 9 8 8 7 6 4 4 3 3 2 2 2 4 7 7 7
7 8 7 6 7 5 5 3 3 1 2 5 7 2 3 4 5 7 10 11 10 12 12 11 10 9 10 9 9 8 7 6 5 4 2 2 1 1 1 1 2 4 7 7
7 9 6 6 7 4 6 5 2 3 5 1 4 2 5 5 6 8 9 10 11 11 10 11 10 10 10 9 8 7 6 6 5 5 4 4 3 3 3 2 3 3 5 6
7 5 4 6 8 5 6 3 1 3 4 3 3 4 5 3 6 9 11 13 13 12 12 12 11 11 9 9 9 7 7 6 5 5 6 5 3 3 2 1 2 2 2 4
8 6 5 7 7 5 2 5 8 7 6 2 3 4 5 5 10 10 10 12 12 12 11 10 8 8 7 7 7 7 7 6 6 5 5 5 5 3 2 2 2 2 1 2
6 8 6 4 3 3 6 7 5 6 5 5 3 3 6 7 8 11 12 11 10 9 10 10 9 8 8 8 8 7 7 6 6 6 5 5 5 4 4 3 3 2 1 2
4 7 6 4 7 6 4 10 8 4 4 5 3 2 5 4 4 5 8 9 9 9 9 10 10 10 10 9 8 7 7 6 5 5 4 4 4 3 3 3 2 2 2 2
7 7 7 6 6 9 5 5 10 7 2 1 3 3 4 3 4 4 5 8 10 11 11 11 10 9 9 9 8 8 7 6 5 5 4 3 3 3 2 2 2 1 1 1
8 5 8 5 1 4 8 8 7 6 4 1 3 3 4 3 5 5 5 8 10 10 10 10 9 9 8 8 7 7 7 6 5 5 3 3 3 2 2 2 2 2 2 2
8 5 7 3 5 8 4 5 6 5 6 6 2 6 6 10 10 11 9 10 11 11 11 9 8 8 8 7 7 7 6 5 5 4 4 4 3 3 3 3 2 2 3 3
8 6 5 8 8 8 9 9 9 6 4 6 5 7 5 10 9 10 10 10 10 10 9 9 9 8 7 7 7 6 6 5 5 5 5 4 4 4 4 4 3 3 4 4
8 7 1 7 7 1 3 5 7 7 6 6 5 6 1 6 7 9 11 11 11 10 10 9 9 8 8 7 6 7 6 5 5 6 6 5 5 5 5 4 4 5 5 6
8 6 8 9 8 4 3 4 5 7 5 5 7 6 3 8 9 8 9 11 11 11 11 10 9 8 8 8 7 7 6 6 6 7 7 6 5 5 5 5 5 6 6 6
7 6 5 6 5 2 2 5 5 6 9 9 8 9 9 12 13 12 12 12 13 12 11 11 10 8 8 8 7 6 6 6 7 8 7 6 6 6 6 7 6 6 6 7
5 6 3 0 1 2 3 5 4 4 5 7 7 5 6 9 11 12 12 13 14 14 13 12 11 10 9 9 8 6 6 6 8 8 7 7 7 7 7 7 7 7 7 7
3 5 5 1 2 4 4 5 3 2 2 7 8 8 8 11 15 16 15 14 13 14 13 13 12 11 10 9 8 8 7 8 8 8 7 7 7 7 7 7 7 7 7 7
6 5 4 2 3 3 9 5 3 3 1 2 5 8 13 13 11 10 12 13 12 12 13 12 12 11 9 9 9 9 9 8 8 8 7 7 7 8 7 7 7 7 6 7
7 7 5 4 3 4 6 4 1 3 2 0 7 9 10 11 9 4 5 9 11 11 11 11 11 11 10 10 10 10 9 8 8 8 8 7 8 8 7 7 6 6 7 7
6 7 6 4 4 5 6 7 2 6 0 3 6 11 12 10 6 5 6 9 10 9 9 10 10 10 10 9 10 11 9 9 8 8 8 7 7 8 8 7 6 6 7 7
4 4 5 4 3 6 6 7 2 5 6 3 5 9 9 6 7 8 10 10 10 10 10 11 11 10 10 10 11 11 9 8 7 8 8 8 7 8 7 7 6 7 7 7
5 5 5 5 4 6 6 4 3 5 3 3 5 6 8 8 10 11 12 12 11 11 10 11 11 9 8 10 11 11 9 8 8 9 9 8 7 7 7 7 7 6 7 8
2 6 6 6 6 4 2 2 2 4 6 4 5 6 11 12 10 11 10 11 10 10 10 9 11 10 8 8 10 11 9 9 10 10 9 8 8 6 6 7 7 6 6 6
4 2 4 4 1 2 5 6 6 6 6 6 7 8 10 11 12 12 11 10 9 8 10 9 11 11 9 8 9 9 10 10 11 10 9 8 8 7 6 5 5 5 5 5
4 3 3 3 1 5 7 6 6 7 8 9 8 7 9 11 11 11 10 10 9 8 7 9 10 10 10 9 9 9 10 11 11 10 9 8 8 8 7 6 4 4 2 3
2 1 3 3 3 2 1 2 5 6 6 7 8 6 6 9 10 10 10 9 9 10 9 9 9 10 9 9 9 9 9 11 12 10 9 7 7 7 6 7 6 8 6 6
Wind_Direction
320 69 248 244 219 211 245 269 256 238 168 133 147 163 174 174 171 175 172 174 180 184 177 169 167 164 160 158 157 161 162 172 165 165 170 173 190 199 198 199 196 192 190 187
16 266 242 245 262 266 271 285 290 299 143 125 134 163 179 179 181 175 174 177 178 173 163 167 167 165 165 165 165 165 167 173 177 179 181 181 176 191 200 210 200 202 201 199
214 244 257 261 275 277 286 236 242 263 33 61 95 44 206 193 181 178 178 178 178 177 173 172 171 172 164 164 166 170 168 169 174 173 154 131 97 63 122 190 220 222 213 207
243 250 259 257 257 231 267 255 183 103 85 323 116 175 257 194 184 188 184 178 184 186 174 173 173 176 173 170 164 162 163 167 171 161 160 166 179 195 210 204 214 233 223 213
253 248 243 246 245 228 230 232 105 98 109 56 34 122 275 170 188 205 193 184 185 183 174 176 178 177 170 163 163 164 162 170 172 172 176 174 187 201 193 190 201 222 242 231
256 267 227 227 250 234 192 46 32 46 66 36 244 149 250 214 198 194 191 188 185 180 172 168 165 156 158 161 162 165 163 172 174 177 180 183 190 184 168 174 190 210 249 264
299 293 268 231 251 320 82 81 33 9 14 261 252 153 242 236 197 182 178 180 176 169 161 158 162 160 163 166 165 166 164 171 176 179 189 195 190 175 178 181 183 185 219 256
222 276 258 213 184 187 159 134 151 180 212 278 330 215 261 244 201 162 158 160 155 154 157 163 168 169 169 168 162 163 167 171 174 178 191 191 181 171 174 176 168 176 206 227
195 248 272 237 197 159 154 164 166 139 159 39 310 305 329 40 85 125 146 149 158 165 164 164 162 162 161 159 161 163 161 159 161 168 166 162 162 157 150 149 142 135 156 169
181 248 280 268 200 184 160 153 97 113 146 215 293 265 223 203 163 156 158 166 168 165 162 161 158 158 155 155 155 146 142 153 154 154 153 140 130 126 119 102 103 98 81 68
177 199 290 340 193 200 169 133 118 125 148 148 202 263 222 186 176 170 172 168 163 163 163 157 152 152 142 142 143 139 138 138 138 137 128 117 112 107 99 97 95 87 74 75
174 154 242 261 252 202 177 178 150 151 199 156 160 260 257 178 171 158 159 157 152 153 148 142 140 136 138 141 139 135 138 139 142 135 126 119 112 104 100 94 85 81 77 70
156 136 187 324 332 325 172 176 157 139 131 146 155 253 295 148 143 146 144 147 146 144 137 133 135 138 143 138 136 138 136 138 133 126 120 110 104 102 99 91 82 79 76 69
137 126 164 195 213 221 236 232 166 133 155 189 198 206 185 158 155 151 146 149 148 144 142 141 139 143 146 142 139 138 135 133 128 118 112 109 105 103 97 89 84 81 79 74
119 144 169 197 205 166 237 259 219 179 178 176 202 188 200 179 167 160 151 148 146 148 146 145 142 143 141 135 131 132 126 124 125 117 112 110 105 98 91 85 81 77 75 74
80 131 132 292 342 41 330 297 253 212 183 171 162 199 208 155 137 145 152 155 155 157 154 148 144 147 147 142 138 133 129 126 121 119 118 112 105 98 93 88 82 78 74 72
67 106 106 231 337 42 300 259 230 219 199 164 181 201 158 143 155 162 163 163 160 158 156 154 154 155 153 150 146 143 138 127 122 119 116 112 109 103 99 98 87 81 77 76
123 99 114 111 74 212 246 249 177 171 233 175 167 168 159 158 157 156 156 156 157 158 155 154 151 148 147 144 140 137 130 126 124 121 116 113 111 107 103 99 94 89 85 82
131 124 110 113 150 262 292 304 187 155 300 250 149 145 135 116 95 91 150 148 153 155 153 152 149 146 143 142 142 133 127 124 122 123 121 120 119 116 110 106 103 98 95 87
75 101 113 120 147 214 250 293 285 115 34 309 140 139 136 121 131 190 169 141 137 137 139 139 137 135 139 142 137 131 131 128 129 128 125 121 120 120 118 114 106 101 99 96
64 71 123 146 180 251 268 302 23 133 204 255 144 141 137 144 165 159 140 133 136 136 134 133 134 140 146 142 134 133 133 134 133 125 118 114 114 114 113 108 104 105 101 94
166 152 168 148 172 245 302 20 109 190 180 123 113 124 121 120 118 125 129 129 131 129 129 131 132 132 134 136 134 134 136 135 126 120 115 112 111 115 114 107 105 105 107 100
169 184 179 174 197 235 306 119 150 136 114 99 102 115 125 122 127 129 129 130 129 132 133 131 131 127 125 130 136 137 139 133 125 119 117 113 103 97 101 106 111 108 108 108
326 5 95 88 48 30 46 58 54 72 88 93 103 111 122 126 135 133 134 133 130 132 134 133 131 131 132 130 130 135 136 132 127 124 121 116 110 100 88 87 95 108 115 120
305 3 61 81 64 31 29 43 61 66 74 81 89 103 116 123 131 137 140 140 140 135 132 134 137 139 140 135 132 135 136 133 129 128 126 120 115 112 100 87 77 102 108 148
318 115 130 191 219 153 245 19 67 75 80 91 100 97 110 125 134 135 140 142 140 139 137 136 136 138 139 137 137 140 141 140 138 137 136 134 130 125 122 116 90 56 69 85
Height
1508 1515 1520 1516 1513 1516 1517 1520 1521 1513 1504 1510 1517 1521 1521 1522 1525 1526 1529 1532 1534 1536 1538 1541 1543 1545 1547 1549 1551 1552 1553 1554 1555 1556 1557 1558 1558 1559 1560 1561 1562 1562 1563 1563
1515 1518 1509 1506 1507 1510 1514 1519 1518 1511 1504 1510 1518 1521 1519 1521 1521 1523 1526 1529 1532 1535 1537 1539 1542 1544 1545 1547 1549 1550 1552 1553 1554 1555 1556 1557 1558 1558 1558 1559 1560 1561 1561 1561
1517 1510 1502 1505 1508 1511 1513 1516 1515 1514 1509 1511 1519 1530 1525 1522 1523 1524 1525 1527 1529 1531 1533 1536 1539 1541 1543 1545 1547 1549 1550 1551 1553 1554 1555 1556 1556 1556 1556 1557 1558 1558 1559 1559
1510 1502 1502 1505 1507 1507 1517 1505 1505 1509 1521 1531 1526 1548 1532 1524 1524 1524 1524 1526 1528 1530 1532 1534 1537 1540 1542 1544 1546 1547 1549 1550 1550 1552 1553 1553 1553 1554 1554 1555 1556 1556 1557 1557
1508 1500 1502 1505 1502 1500 1505 1499 1503 1508 1519 1532 1531 1543 1538 1525 1527 1523 1521 1522 1525 1528 1530 1532 1535 1538 1540 1543 1544 1546 1547 1548 1549 1550 1551 1551 1552 1552 1553 1553 1554 1554 1555 1555
1501 1496 1497 1497 1494 1494 1496 1504 1511 1521 1531 1547 1535 1541 1540 1528 1521 1518 1518 1520 1523 1526 1529 1532 1535 1537 1540 1542 1543 1545 1545 1546 1547 1548 1549 1550 1550 1551 1551 1551 1552 1552 1553 1553
1505 1497 1492 1492 1497 1495 1500 1525 1547 1549 1559 1552 1533 1536 1534 1514 1510 1511 1514 1518 1521 1524 1527 1530 1533 1536 1538 1540 1542 1543 1544 1545 1546 1547 1547 1548 1549 1549 1549 1550 1550 1550 1550 1551
1517 1516 1494 1489 1494 1502 1504 1521 1548 1559 1560 1552 1535 1536 1524 1507 1506 1508 1512 1515 1519 1522 1525 1529 1531 1533 1536 1537 1540 1541 1543 1544 1545 1546 1546 1546 1547 1548 1548 1549 1549 1549 1549 1549
1515 1513 1489 1485 1486 1492 1503 1515 1520 1539 1544 1552 1544 1530 1517 1507 1508 1510 1513 1515 1518 1521 1524 1527 1530 1532 1534 1536 1538 1540 1541 1543 1544 1544 1545 1545 1545 1546 1547 1547 1547 1547 1547 1547
1499 1508 1493 1485 1485 1487 1493 1503 1524 1538 1554 1559 1547 1538 1531 1516 1513 1512 1513 1515 1517 1520 1523 1525 1528 1531 1533 1535 1537 1539 1540 1542 1543 1543 1544 1544 1545 1545 1546 1546 1546 1546 1546 1546
1492 1506 1501 1493 1494 1497 1497 1503 1518 1535 1541 1555 1556 1544 1511 1509 1507 1509 1511 1513 1517 1520 1522 1524 1527 1530 1532 1534 1536 1538 1540 1541 1542 1543 1543 1544 1544 1545 1545 1545 1545 1545 1544 1544
1488 1503 1511 1500 1487 1483 1489 1498 1513 1531 1537 1542 1548 1539 1501 1502 1504 1505 1508 1512 1516 1519 1521 1524 1527 1530 1532 1534 1536 1537 1539 1541 1541 1542 1543 1543 1544 1544 1544 1544 1544 1544 1543 1543
1484 1502 1517 1515 1504 1490 1489 1492 1501 1514 1528 1539 1545 1531 1502 1502 1505 1506 1509 1512 1515 1519 1521 1524 1527 1530 1532 1534 1536 1537 1538 1540 1541 1542 1543 1543 1544 1544 1544 1544 1544 1543 1543 1543
1474 1496 1509 1518 1511 1497 1494 1491 1493 1509 1526 1530 1527 1520 1507 1505 1506 1508 1510 1512 1514 1517 1521 1524 1527 1530 1532 1534 1536 1537 1538 1539 1541 1542 1542 1543 1543 1544 1544 1544 1544 1543 1543 1543
1473 1491 1492 1492 1488 1487 1490 1489 1489 1498 1507 1516 1513 1511 1505 1501 1502 1506 1508 1511 1515 1518 1521 1523 1526 1530 1532 1534 1536 1537 1538 1539 1540 1541 1542 1542 1543 1544 1544 1544 1544 1543 1543 1543
1476 1487 1489 1491 1485 1486 1489 1487 1486 1489 1492 1499 1501 1505 1496 1496 1501 1505 1508 1511 1514 1516 1519 1522 1525 1528 1530 1533 1535 1537 1538 1539 1540 1541 1543 1543 1544 1544 1544 1544 1544 1544 1543 1543
1482 1488 1500 1503 1491 1490 1500 1489 1487 1488 1487 1491 1500 1497 1493 1496 1499 1501 1505 1508 1511 1514 1517 1520 1523 1526 1529 1532 1535 1537 1538 1539 1541 1542 1543 1544 1544 1545 1545 1545 1545 1544 1544 1544
1481 1491 1502 1506 1501 1513 1500 1480 1480 1483 1484 1483 1485 1487 1488 1490 1495 1500 1502 1506 1510 1513 1516 1519 1522 1525 1528 1531 1534 1537 1538 1539 1541 1542 1543 1544 1544 1545 1545 1545 1545 1545 1544 1544
1473 1487 1501 1512 1513 1506 1490 1479 1478 1484 1489 1482 1483 1485 1489 1493 1498 1504 1505 1506 1509 1512 1515 1519 1522 1525 1528 1531 1534 1536 1538 1539 1541 1542 1543 1544 1545 1545 1545 1545 1545 1545 1545 1545
1476 1482 1498 1508 1511 1514 1495 1478 1474 1480 1494 1484 1482 1484 1488 1492 1503 1505 1505 1507 1510 1512 1515 1519 1522 1525 1528 1531 1533 1535 1537 1538 1540 1542 1543 1544 1545 1545 1545 1545 1545 1546 1546 1546
1488 1492 1499 1506 1508 1502 1484 1478 1476 1496 1497 1485 1483 1484 1487 1490 1494 1499 1502 1506 1509 1511 1515 1518 1522 1524 1527 1530 1532 1534 1536 1538 1540 1541 1542 1544 1545 1545 1545 1546 1546 1546 1546 1547
1491 1497 1501 1505 1508 1505 1482 1479 1484 1487 1483 1484 1484 1485 1487 1490 1495 1498 1502 1505 1509 1512 1515 1518 1521 1524 1527 1529 1531 1534 1536 1538 1539 1541 1542 1543 1544 1545 1545 1546 1546 1547 1547 1548
1488 1489 1491 1494 1497 1487 1482 1481 1482 1481 1482 1484 1484 1486 1487 1491 1495 1499 1503 1506 1509 1512 1515 1518 1520 1522 1526 1528 1531 1533 1535 1537 1539 1540 1542 1543 1544 1545 1546 1546 1547 1548 1548 1549
1485 1482 1485 1489 1488 1485 1483 1482 1483 1483 1483 1485 1487 1488 1489 1491 1494 1498 1502 1506 1509 1512 1514 1517 1519 1521 1524 1527 1530 1532 1534 1536 1538 1539 1541 1542 1544 1545 1546 1547 1548 1548 1549 1549
1488 1485 1488 1491 1489 1486 1486 1485 1485 1486 1486 1487 1488 1490 1492 1493 1496 1498 1502 1505 1508 1511 1514 1516 1518 1520 1523 1526 1529 1531 1533 1535 1537 1538 1540 1542 1543 1544 1546 1547 1548 1549 1549 1550
1487 1489 1491 1493 1489 1489 1490 1489 1488 1488 1488 1488 1489 1492 1495 1495 1497 1499 1502 1505 1508 1510 1513 1516 1518 1520 1522 1524 1527 1529 1532 1534 1536 1537 1539 1541 1542 1544 1545 1546 1548 1549 1550 1551